"2022-11-14 00:01:00",3200805,1.774,43.06403,8.81174,0.4986622,3.06,0,1.040667,4.760536,9.453934,0.1467636,1.34,0,-999,0,4.727,85.1,4.792,4.828,0.2,0,0,3.185,13.23,0.2,101.7241,3.279,3.279,3.275,100,0,0,0,387.2,130.2,130.2
"2022-11-14 00:02:00",3200806,1.870667,54.45396,13.61941,0.3839526,2.65,0,1.042667,39.71135,17.11158,0.2755955,1.63,0,-999,0,4.78,85.2,4.802,4.828,0.2,0,0,3.185,13.24,0.2,101.7253,3.281,3.281,3.276,100,0,0,0,387.2,130.2,130.2
"2022-11-14 00:03:00",3200807,1.620667,45.33228,4.420502,0.1229345,1.79,0,0.8360001,20.71084,10.45463,0.05654497,0.91,0,-999,0,4.7,84.6,4.678,4.711,0.2,0,0,3.185,13.23,0.2,101.7276,3.28,3.28,3.278,100,0,0,0,387.2,130.2,130.2
"2022-11-14 00:04:00",3200808,1.480667,55.43852,7.418659,0.2086294,1.91,0,0.844,29.33981,6.115747,0.06118823,0.96,0,-999,0,4.633,84.5,4.61,4.628,0.2,0,0,3.183,13.24,0.2,101.7234,3.28,3.28,3.276,100,0,0,0,387.2,130.2,130.2
"2022-11-14 00:05:00",3200809,1.996,55.26324,3.818942,0.1900807,2.35,0,0.8913333,22.18462,10.66138,0.1038503,1.08,0,-999,0,4.58,84.4,4.537,4.549,0.2,0,0,3.166,13.24,0.2,101.7217,3.28,3.28,3.278,100,0,0,0,387.2,130.2,130.2
"2022-11-14 00:06:00",3200810,2.002667,55.66278,5.195723,0.1515461,2.22,0,0.9066667,38.6851,8.617166,0.1107951,1.08,0,-999,0,4.487,84.2,4.467,4.474,0.2,0,0,3.165,13.23,0.2,101.7251,3.279,3.28,3.275,100,0,0,0,387.2,130.2,130.2
"2022-11-14 00:07:00",3200811,1.746,47.39912,3.62873,0.1481801,2,0,0.4306666,56.32365,10.58883,0.09705437,0.64,0,-999,0,4.36,84,4.321,4.305,0.2,0,0,3.165,13.24,0.2,101.7197,3.28,3.28,3.278,100,0,0,0,387.2,130.2,130.2
"2022-11-14 00:08:00",3200812,1.824,58.11622,7.1649,0.1647948,2.12,0,0.6346667,49.41245,5.600387,0.07544243,0.78,0,-999,0,4.233,84.4,4.173,4.171,0.2,0,0,3.165,13.24,0.2,101.7167,3.28,3.281,3.278,100,0,0,0,387.2,130.2,130.2
"2022-11-14 00:09:00",3200813,1.506,50.9973,8.87318,0.149791,1.8,0,0.5786667,36.6152,11.07298,0.08444853,0.71,0,-999,0,4.2,84.8,4.168,4.143,0.2,0,0,3.165,13.24,0.2,101.7158,3.28,3.282,3.279,100,0,0,0,387.2,130.2,130.2
"2022-11-14 00:10:00",3200814,1.772,60.66829,5.371932,0.2307726,2.12,0,0.7086667,32.13221,6.5475,0.1163252,0.89,0,-999,0,4.153,85.5,4.144,4.116,0.2,0,0,3.165,13.24,0.2,101.7181,3.28,3.28,3.278,100,0,0,0,387.2,130.2,130.2
"2022-11-14 00:11:00",3200815,1.626,61.80089,6.880963,0.1919653,2.14,0,0.696,33.09534,13.25231,0.2137537,1.04,0,-999,0,4.1,85.8,4.136,4.093,0.2,0,0,3.148,13.25,0.2,101.7168,3.28,3.28,3.278,100,0,0,0,387.2,130.2,130.2
"2022-11-14 00:12:00",3200816,1.783333,60.36101,9.665207,0.1597359,2.17,0,0.868,40.66611,3.58953,0.1057796,1.03,0,-999,0,4.113,86.3,4.183,4.17,0.2,0,0,3.142,13.24,0.2,101.7183,3.278,3.28,3.278,100,0,0,0,387.2,130.2,130.2
"2022-11-14 00:13:00",3200817,1.724667,63.39119,9.982766,0.2904219,2.39,0,0.8053333,43.06897,4.169553,0.1320539,1.09,0,-999,0,4.227,87,4.352,4.312,0.2,0,0,3.142,13.25,0.2,101.7131,3.278,3.279,3.275,100,0,0,0,387.2,130.2,130.2
"2022-11-14 00:14:00",3200818,1.954,59.665,6.364233,0.2578061,2.49,0,0.9426667,52.79902,4.428276,0.1141033,1.13,0,-999,0,4.353,87.4,4.495,4.498,0.2,0,0,3.123,13.24,0.2,101.7149,3.279,3.28,3.278,100,0,0,0,387.2,130.2,130.2
"2022-11-14 00:15:00",3200819,1.862,67.06776,3.213342,0.121282,2.12,0,0.8766667,56.06314,4.247479,0.2391838,1.38,0,-999,0,4.453,87.2,4.542,4.564,0.2,0,0,3.122,13.24,0.2,101.7143,3.28,3.28,3.279,100,0,0,0,387.2,130.2,130.2
"2022-11-14 00:16:00",3200820,1.74,74.66417,3.768861,0.1724336,2.19,0,0.8066667,60.80169,6.594028,0.1102522,1.07,0,-999,0,4.407,86.3,4.44,4.467,0.2,0,0,3.122,13.24,0.2,101.7098,3.275,3.28,3.275,100,0,0,0,387.2,130.2,130.2
"2022-11-14 00:17:00",3200821,1.774667,75.49924,12.48916,0.3502735,2.4,0,0.7486666,60.9887,7.298637,0.2227066,1.03,0,-999,0,4.407,86.2,4.468,4.463,0.2,0,0,3.122,13.24,0.2,101.7131,3.278,3.28,3.278,100,0,0,0,387.2,130.2,130.2
"2022-11-14 00:18:00",3200822,1.688667,78.59583,8.906085,0.2711916,2.2,0,0.5139999,71.68991,9.422319,0.09097984,0.7,0,-999,0,4.5,86.6,4.542,4.546,0.2,0,0,3.116,13.22,0.2,101.7097,3.278,3.279,3.275,100,0,0,0,387.2,130.2,130.2
"2022-11-14 00:19:00",3200823,1.35,81.70597,13.45575,0.2378515,1.67,0,0.9413334,66.08938,18.75327,0.2618362,1.43,0,-999,0,4.473,86.2,4.522,4.529,0.2,0,0,3.101,13.24,0.2,101.7109,3.278,3.279,3.275,100,0,0,0,387.2,130.2,130.2
"2022-11-14 00:20:00",3200824,1.097333,76.81065,13.88866,0.3072993,1.75,0,0.7746667,102.5703,25.248,0.3132809,1.35,0,-999,0,4.473,85.6,4.505,4.502,0.2,0,0,3.099,13.24,0.2,101.7105,3.279,3.279,3.278,100,0,0,0,387.2,130.2,130.2
"2022-11-14 00:21:00",3200825,1.291333,80.13454,4.813656,0.2646222,1.94,0,0.3873333,112.4552,17.04048,0.1480751,0.72,0,-999,0,4.4,85.5,4.454,4.457,0.2,0,0,3.099,13.24,0.2,101.7099,3.279,3.28,3.276,100,0,0,0,387.2,130.2,130.2
"2022-11-14 00:22:00",3200826,1.432,75.53588,21.42404,0.2614371,1.96,0,0.3226666,81.17581,27.89517,0.08605944,0.43,0,-999,0,4.4,86.1,4.445,4.407,0.2,0,0,3.099,13.24,0.2,101.7131,3.28,3.28,3.279,100,0,0,0,387.2,130.2,130.2
"2022-11-14 00:23:00",3200827,1.02,74.28323,16.80177,0.1839202,1.39,0,0.3033333,89.74986,64.09148,0.1052405,0.54,0,-999,0,4.387,86.3,4.431,4.393,0.2,0,0,3.099,13.24,0.2,101.7109,3.279,3.28,3.279,100,0,0,0,387.2,130.2,130.2
"2022-11-14 00:24:00",3200828,1.091333,100.5681,8.641089,0.1069496,1.27,0,0.4933333,117.8691,42.9261,0.2239842,0.96,0,-999,0,4.3,85.8,4.423,4.376,0.2,0,0,3.086,13.25,0.2,101.711,3.279,3.28,3.275,100,0,0,0,387.2,130.2,130.2
"2022-11-14 00:25:00",3200829,1.516667,102.2764,10.995,0.2142791,1.99,0,0.3106667,20.71474,58.97712,0.09124813,0.41,0,-999,0,4.3,86.2,4.469,4.397,0.2,0,0,3.079,13.24,0.2,101.7056,3.275,3.279,3.275,100,0,0,0,387.2,130.2,130.2
"2022-11-14 00:26:00",3200830,1.522,82.55197,9.845909,0.4843442,2.43,0,0.6659999,73.85111,46.3847,0.2029384,1.11,0,-999,0,4.4,86.5,4.562,4.477,0.2,0,0,3.079,13.24,0.2,101.7024,3.278,3.279,3.275,100,0,0,0,387.2,130.2,130.2
"2022-11-14 00:27:00",3200831,1.958667,97.45937,15.74007,0.5855581,3.19,0,0.4706667,51.09961,29.4955,0.3420422,1.67,0,-999,0,4.4,86.4,4.514,4.45,0.2,0,0,3.079,13.24,0.2,101.7041,3.278,3.28,3.275,100,0,0,0,387.2,130.2,130.2
"2022-11-14 00:28:00",3200832,1.682667,95.97453,14.30227,0.363455,2.36,0,1.823333,92.74306,18.42723,0.6319986,2.71,0,-999,0,4.48,86.3,4.531,4.536,0.2,0,0,3.06,13.24,0.2,101.7037,3.278,3.279,3.274,100,0,0,0,387.2,130.2,130.2
"2022-11-14 00:29:00",3200833,2.502667,91.85988,9.655334,0.2977575,3.1,0,0.684,70.66433,15.17848,0.3021214,1.34,0,-999,0,4.56,85.7,4.629,4.607,0.2,0,0,3.057,13.23,0.2,101.7016,3.275,3.279,3.275,100,0,0,0,387.2,130.2,130.2
"2022-11-14 00:30:00",3200834,1.992,93.2569,12.55185,0.3656446,2.76,0,1.323333,89.09179,9.498017,0.3924736,2.65,0,-999,0,4.6,85.1,4.673,4.644,0.2,0,0,3.057,13.22,0.2,101.6992,3.275,3.278,3.274,100,0,0,0,387.2,130.2,130.2
"2022-11-14 00:31:00",3200835,2.077334,89.80269,4.620178,0.2299121,2.46,0,1.349333,90.21339,12.57234,0.4560772,2.75,0,-999,0,4.64,85.1,4.691,4.649,0.2,0,0,3.039,13.23,0.2,101.6958,3.275,3.278,3.274,100,0,0,0,387.2,130.2,130.2
"2022-11-14 00:32:00",3200836,2.116667,91.38824,10.85233,0.3066739,2.78,0,1.141333,91.2031,7.407791,0.1377373,1.44,0,-999,0,4.7,85.6,4.756,4.691,0.2,0,0,3.036,13.23,0.2,101.6958,3.279,3.279,3.274,100,0,0,0,387.2,130.2,130.2
"2022-11-14 00:33:00",3200837,1.752,74.94988,7.264317,0.2159383,2.14,0,1.109333,67.80534,18.07159,0.1427103,1.38,0,-999,0,4.7,85.7,4.758,4.71,0.2,0,0,3.036,13.24,0.2,101.6963,3.279,3.28,3.275,100,0,0,0,387.2,130.2,130.2
"2022-11-14 00:34:00",3200838,1.306667,71.12049,19.2523,0.2674987,1.77,0,1.145333,60.64234,28.66144,0.4330799,2.09,0,-999,0,4.68,85.4,4.714,4.682,0.2,0,0,3.036,13.23,0.2,101.6987,3.278,3.28,3.275,100,0,0,0,387.2,130.2,130.2
"2022-11-14 00:35:00",3200839,0.9006666,75.06985,15.62001,0.1979719,1.26,0,0.5613333,44.89117,25.59475,0.2078739,0.83,0,-999,0,4.6,85.5,4.636,4.619,0.2,0,0,3.036,13.23,0.2,101.7014,3.278,3.279,3.274,100,0,0,0,387.2,130.2,130.2
"2022-11-14 00:36:00",3200840,1.301333,66.16782,20.56248,0.2995523,1.85,0,0.516,18.63996,32.98821,0.2323733,1.01,0,-999,0,4.56,86.1,4.61,4.586,0.2,0,0,3.036,13.24,0.2,101.7009,3.279,3.28,3.276,100,0,0,0,387.2,130.2,130.2
"2022-11-14 00:37:00",3200841,1.328667,77.57426,9.538183,0.1834072,1.75,0,0.6526666,33.42622,41.15231,0.1799432,1.14,0,-999,0,4.5,86,4.553,4.535,0.2,0,0,3.036,13.24,0.2,101.7023,3.276,3.278,3.275,100,0,0,0,387.2,130.2,130.2
"2022-11-14 00:38:00",3200842,1.073333,77.93684,11.04104,0.3820588,1.83,0,0.5913333,4.380169,24.50558,0.1460989,0.85,0,-999,0,4.507,85.9,4.59,4.55,0.2,0,0,3.036,13.24,0.2,101.7086,3.279,3.279,3.278,100,0,0,0,387.2,130.2,130.2
"2022-11-14 00:39:00",3200843,1.439333,75.74583,13.77538,0.2598837,2.01,0,0.8333333,50.13327,24.34563,0.1842342,1.12,0,-999,0,4.5,85.5,4.6,4.555,0.2,0,0,3.036,13.24,0.2,101.7083,3.28,3.28,3.278,100,0,0,0,387.2,130.2,130.2
"2022-11-14 00:40:00",3200844,1.478667,67.99953,5.476101,0.214503,1.96,0,0.8279999,67.37191,12.21994,0.2382772,1.5,0,-999,0,4.633,85.2,4.764,4.699,0.2,0,0,3.035,13.22,0.2,101.7046,3.275,3.281,3.275,100,0,0,0,387.2,130.2,130.2
"2022-11-14 00:41:00",3200845,1.487333,62.40112,13.55783,0.1729534,1.78,0,0.43,63.42566,18.17227,0.1075174,0.75,0,-999,0,4.707,85.3,4.829,4.783,0.2,0,0,3.027,13.23,0.2,101.7004,3.274,3.278,3.274,100,0,0,0,387.2,130.2,130.2
"2022-11-14 00:42:00",3200846,1.981333,77.24561,11.01027,0.2594575,2.42,0,0.9133334,63.33316,27.01879,0.2202019,1.3,0,-999,0,4.807,85.4,4.963,4.914,0.2,0,0,3.014,13.24,0.2,101.7038,3.28,3.28,3.273,100,0,0,0,387.2,130.2,130.2
"2022-11-14 00:43:00",3200847,1.556667,76.31908,9.508982,0.2769517,1.99,0,1.051333,62.45611,11.93327,0.254188,1.61,0,-999,0,4.8,85,4.887,4.919,0.2,0,0,3.014,13.22,0.2,101.7052,3.273,3.28,3.273,100,0,0,0,387.2,130.2,130.2
"2022-11-14 00:44:00",3200848,1.454667,75.74736,5.248653,0.2751937,2.25,0,0.8439999,63.33232,5.184515,0.2394939,1.27,0,-999,0,4.8,85,4.846,4.86,0.2,0,0,3.014,13.25,0.2,101.7071,3.278,3.279,3.274,100,0,0,0,387.2,130.2,130.2
"2022-11-14 00:45:00",3200849,1.939333,86.22861,10.50916,0.3352903,2.49,0,0.8333333,52.92788,16.66384,0.1098281,1.01,0,-999,0,4.827,85.4,4.96,4.967,0.2,0,0,3.014,13.24,0.2,101.7051,3.278,3.279,3.275,100,0,0,0,387.2,130.2,130.2
"2022-11-14 00:46:00",3200850,1.558667,75.13622,7.07427,0.2180173,2.04,0,0.888,55.42627,10.33892,0.2815718,1.47,0,-999,0,4.873,85,4.944,4.954,0.2,0,0,3.014,13.24,0.2,101.7014,3.278,3.278,3.275,100,0,0,0,387.2,130.2,130.2
"2022-11-14 00:47:00",3200851,1.241333,65.40009,7.68123,0.1540072,1.5,0,0.5893334,54.74513,13.27081,0.08729006,0.76,0,-999,0,4.8,84.3,4.836,4.847,0.2,0,0,3.012,13.23,0.2,101.7011,3.275,3.278,3.273,100,0,0,0,387.2,130.2,130.2
"2022-11-14 00:48:00",3200852,1.669333,69.98131,9.430495,0.3250942,2.39,0,0.6073333,75.54131,9.495849,0.09204829,0.74,0,-999,0,4.76,84.9,4.833,4.831,0.2,0,0,3.01,13.24,0.2,101.7007,3.278,3.278,3.275,100,0,0,0,387.2,130.2,130.2
"2022-11-14 00:49:00",3200853,1.065333,52.21403,13.46113,0.2898704,1.5,0,0.5766667,52.63092,28.50054,0.2009201,0.88,0,-999,0,4.7,85.3,4.804,4.785,0.2,0,0,2.997,13.24,0.2,101.7017,3.279,3.28,3.275,100,0,0,0,387.2,130.2,130.2
"2022-11-14 00:50:00",3200854,0.8893333,72.06073,32.80469,0.390546,1.63,0,0.554,45.37913,13.57957,0.1335565,0.84,0,-999,0,4.7,85.6,4.781,4.758,0.2,0,0,2.995,13.24,0.2,101.7021,3.279,3.279,3.278,100,0,0,0,387.2,130.2,130.2
"2022-11-14 00:51:00",3200855,1.286,86.26567,14.20737,0.3674198,1.98,0,0.6646666,39.46217,53.24645,0.1537039,1.11,0,-999,0,4.7,85.8,4.809,4.742,0.2,0,0,2.997,13.24,0.2,101.7015,3.278,3.279,3.276,100,0,0,0,387.2,130.2,130.2
"2022-11-14 00:52:00",3200856,1.182667,91.59827,16.39726,0.2995211,1.84,0,1.092,112.2902,21.93632,0.476266,1.82,0,-999,0,4.733,85,4.837,4.79,0.2,0,0,2.993,13.24,0.2,101.6994,3.279,3.279,3.276,100,0,0,0,387.2,130.2,130.2
"2022-11-14 00:53:00",3200857,1.538666,92.59973,7.563648,0.1734692,1.79,0,0.412,51.73856,25.79351,0.1284886,0.61,0,-999,0,4.7,85,4.745,4.699,0.2,0,0,2.996,13.23,0.2,101.7009,3.278,3.278,3.274,100,0,0,0,387.2,130.2,130.2
"2022-11-14 00:54:00",3200858,1.432667,82.78883,8.871662,0.106675,1.57,0,0.576,62.58386,11.46914,0.1369574,0.78,0,-999,0,4.633,85.1,4.658,4.628,0.2,0,0,2.996,13.23,0.2,101.6975,3.275,3.279,3.273,100,0,0,0,387.2,130.2,130.2
"2022-11-14 00:55:00",3200859,1.978,89.99207,6.658445,0.6850421,3.43,0,0.7093334,77.2898,12.52521,0.2354419,1.33,0,-999,0,4.6,85.3,4.629,4.598,0.2,0,0,2.999,13.24,0.2,101.6957,3.28,3.28,3.273,100,0,0,0,387.2,130.2,130.2
"2022-11-14 00:56:00",3200860,2.661334,90.61181,9.457129,0.4109317,3.66,0,1.114,88.91722,26.61206,0.3308937,1.72,0,-999,0,4.6,85.2,4.729,4.685,0.2,0,0,3.001,13.23,0.2,101.6981,3.276,3.278,3.275,100,0,0,0,387.2,130.2,130.2
"2022-11-14 00:57:00",3200861,2.315333,90.68009,5.877513,0.2770046,2.97,0,1.38,86.66914,11.90028,0.200898,1.84,0,-999,0,4.607,84.6,4.701,4.646,0.2,0,0,3.005,13.23,0.2,101.6944,3.278,3.278,3.273,100,0,0,0,387.2,130.2,130.2
"2022-11-14 00:58:00",3200862,2.431333,83.49949,8.554297,0.8235198,3.62,0,1.354,91.1329,9.271463,0.2099143,1.71,0,-999,0,4.64,85.1,4.75,4.677,0.2,0,0,3.014,13.22,0.2,101.6863,3.278,3.28,3.274,100,0,0,0,387.2,130.2,130.2
"2022-11-14 00:59:00",3200863,2.044,72.16564,16.25499,0.3359327,2.66,0,1.312667,84.61631,14.62544,0.1555835,1.5,0,-999,0,4.7,85.5,4.776,4.718,0.2,0,0,3.014,13.23,0.2,101.6876,3.279,3.28,3.275,100,0,0,0,387.2,130.2,130.2
"2022-11-14 01:00:00",3200864,2.478,84.14281,6.612629,0.2775656,2.79,0,1.055333,63.50903,24.80719,0.375071,1.58,0,-999,0,4.64,85.5,4.717,4.658,0.2,0,0,3.014,13.25,0.2,101.6906,3.279,3.279,3.278,100,0,0,0,387.2,130.2,130.2
"2022-11-14 01:01:00",3200865,1.765333,72.00175,13.11266,0.2725647,2.23,0,1.226,70.78588,13.78473,0.2003597,1.63,0,-999,0,4.667,85.5,4.779,4.704,0.2,0,0,3.02,13.22,0.2,101.6867,3.278,3.279,3.274,100,0,0,0,387.2,130.2,130.2
"2022-11-14 01:02:00",3200866,1.952,54.92701,13.61751,0.3499562,2.56,0,1.289333,43.38677,17.65589,0.2596784,1.79,0,-999,0,4.6,85.6,4.665,4.631,0.2,0,0,3.036,13.24,0.2,101.6926,3.279,3.28,3.276,100,0,0,0,387.2,130.2,130.2
"2022-11-14 01:03:00",3200867,1.762,64.73481,7.898718,0.118558,2.02,0,0.828,36.03125,16.60134,0.1801185,1.09,0,-999,0,4.507,85.6,4.545,4.532,0.2,0,0,3.036,13.25,0.2,101.6934,3.28,3.28,3.278,100,0,0,0,387.2,130.2,130.2
"2022-11-14 01:04:00",3200868,1.762,67.55115,17.27259,0.2740608,2.2,0,0.5586666,41.133,14.63079,0.1699752,0.84,0,-999,0,4.4,85.6,4.484,4.438,0.2,0,0,3.036,13.24,0.2,101.6931,3.278,3.28,3.275,100,0,0,0,387.2,130.2,130.2
"2022-11-14 01:05:00",3200869,1.633333,60.05336,19.37833,0.4586017,2.56,0,0.364,46.11051,24.8481,0.1651585,0.74,0,-999,0,4.34,85.6,4.455,4.402,0.2,0,0,3.042,13.25,0.2,101.6847,3.279,3.28,3.278,100,0,0,0,387.2,130.2,130.2
"2022-11-14 01:06:00",3200870,1.065333,33.59264,5.682103,0.09776617,1.27,0,0.7600001,40.29963,22.21288,0.1904731,0.97,0,-999,0,4.407,85.7,4.528,4.495,0.2,0,0,3.057,13.23,0.2,101.6815,3.276,3.28,3.275,100,0,0,0,387.2,130.2,130.2
"2022-11-14 01:07:00",3200871,0.9913333,32.97728,8.160906,0.2082264,1.53,0,0.6226667,6.171975,15.32256,0.1403551,0.87,0,-999,0,4.327,85.8,4.418,4.391,0.2,0,0,3.057,13.25,0.2,101.6835,3.281,3.281,3.274,100,0,0,0,387.2,130.2,130.2
"2022-11-14 01:08:00",3200872,1.164667,50.06508,6.725846,0.1450456,1.37,0,0.61,356.3917,10.00886,0.1190518,0.83,0,-999,0,4.32,86.8,4.435,4.386,0.2,0,0,3.057,13.23,0.2,101.6833,3.28,3.28,3.275,100,0,0,0,387.2,130.2,130.2
"2022-11-14 01:09:00",3200873,1.248667,47.80251,4.967908,0.1889221,1.56,0,0.6253332,355.0409,15.87796,0.1187079,0.86,0,-999,0,4.3,86.8,4.359,4.294,0.2,0,0,3.061,13.25,0.2,101.6796,3.279,3.28,3.279,100,0,0,0,387.2,130.2,130.2
"2022-11-14 01:10:00",3200874,1.570667,54.83869,10.6692,0.2398184,1.94,0,0.618,20.73549,17.58452,0.121062,0.83,0,-999,0,4.2,86,4.248,4.206,0.2,0,0,3.067,13.24,0.2,101.686,3.279,3.28,3.279,100,0,0,0,387.2,130.2,130.2
"2022-11-14 01:11:00",3200875,1.161333,60.08965,10.80852,0.314449,1.8,0,0.5686667,57.00576,15.68471,0.1890632,0.88,0,-999,0,4.147,85.9,4.221,4.166,0.2,0,0,3.058,13.24,0.2,101.6805,3.278,3.28,3.276,100,0,0,0,387.2,130.2,130.2
"2022-11-14 01:12:00",3200876,1.639333,55.4637,4.961567,0.2443076,2.06,0,0.7986667,35.25214,11.50193,0.1443083,1.03,0,-999,0,4.2,86.4,4.266,4.225,0.2,0,0,3.057,13.23,0.2,101.6809,3.275,3.279,3.275,100,0,0,0,387.2,130.2,130.2
"2022-11-14 01:13:00",3200877,1.576667,71.5993,9.497059,0.2207764,2.01,0,0.7573334,47.26517,7.184414,0.1018801,0.89,0,-999,0,4.16,86.7,4.218,4.193,0.2,0,0,3.057,13.24,0.2,101.6808,3.276,3.279,3.275,100,0,0,0,387.2,130.2,130.2
"2022-11-14 01:14:00",3200878,1.476667,63.47033,6.406008,0.1881016,2.01,0,0.8200001,43.33173,3.959771,0.07474401,0.97,0,-999,0,4.1,87.1,4.22,4.162,0.2,0,0,3.057,13.24,0.2,101.6749,3.275,3.278,3.275,100,0,0,0,387.2,130.2,130.2
"2022-11-14 01:15:00",3200879,1.636,68.4049,7.100847,0.2267686,1.93,0,0.9353334,47.39855,3.683053,0.0700349,1.05,0,-999,0,4.067,87.5,4.17,4.115,0.2,0,0,3.055,13.24,0.2,101.6733,3.278,3.28,3.276,100,0,0,0,387.2,130.2,130.2
"2022-11-14 01:16:00",3200880,1.579333,62.65822,8.383939,0.2431588,2.05,0,1.124667,47.6008,2.961536,0.1484528,1.39,0,-999,0,4.06,87.7,4.202,4.176,0.2,0,0,3.043,13.24,0.2,101.6714,3.278,3.28,3.278,100,0,0,0,387.2,130.2,130.2
"2022-11-14 01:17:00",3200881,1.534667,60.46753,4.854405,0.09555916,1.69,0,1.038667,46.73133,6.4183,0.08739691,1.16,0,-999,0,4.033,87.7,4.159,4.158,0.2,0,0,3.036,13.24,0.2,101.6744,3.276,3.279,3.276,100,0,0,0,387.2,130.2,130.2
"2022-11-14 01:18:00",3200882,1.568,58.73239,5.69527,0.1241075,1.78,0,0.874,49.93444,2.541339,0.04543126,0.98,0,-999,0,4,87.9,4.163,4.146,0.2,0,0,3.036,13.25,0.2,101.6728,3.279,3.279,3.274,100,0,0,0,387.2,130.2,130.2
"2022-11-14 01:19:00",3200883,1.588,68.13174,6.105154,0.1079012,1.83,0,0.7173334,37.444,7.79728,0.08061983,0.87,0,-999,0,3.987,87.8,4.054,4.041,0.2,0,0,3.036,13.24,0.2,101.6694,3.276,3.279,3.276,100,0,0,0,387.2,130.2,130.2
"2022-11-14 01:20:00",3200884,1.628,60.40202,5.363713,0.1951137,2.03,0,0.8600001,36.40195,4.988776,0.1122497,1.05,0,-999,0,3.887,87.4,3.935,3.945,0.2,0,0,3.029,13.24,0.2,101.6665,3.278,3.278,3.275,100,0,0,0,387.2,130.2,130.2
"2022-11-14 01:21:00",3200885,1.586667,55.92107,6.314516,0.1419702,1.78,0,1.062,40.9255,5.022346,0.1582066,1.38,0,-999,0,3.813,87.5,3.888,3.889,0.2,0,0,3.014,13.24,0.2,101.6611,3.276,3.28,3.276,100,0,0,0,387.2,130.2,130.2
"2022-11-14 01:22:00",3200886,1.54,58.52505,7.236191,0.1379855,1.83,0,0.876,25.39604,6.083152,0.07989994,1.01,0,-999,0,3.8,87.8,3.889,3.874,0.2,0,0,3.014,13.23,0.2,101.657,3.278,3.278,3.274,100,0,0,0,387.2,130.2,130.2
"2022-11-14 01:23:00",3200887,1.797333,58.52934,6.516826,0.1923353,2.25,0,0.816,27.86787,4.772417,0.07525958,0.98,0,-999,0,3.787,87.8,3.817,3.799,0.2,0,0,3.005,13.23,0.2,101.6551,3.276,3.279,3.275,100,0,0,0,387.2,130.2,130.2
"2022-11-14 01:24:00",3200888,1.692,56.19234,6.673051,0.1639593,2.02,0,1.031333,31.66712,4.436013,0.06897985,1.16,0,-999,0,3.7,87.8,3.723,3.727,0.2,0,0,2.993,13.24,0.2,101.6527,3.279,3.279,3.276,100,0,0,0,387.2,130.2,130.2
"2022-11-14 01:25:00",3200889,1.709333,56.32772,5.59183,0.1538166,1.97,0,0.8726667,29.86522,5.389282,0.05626918,0.96,0,-999,0,3.613,87.9,3.651,3.662,0.2,0,0,2.993,13.23,0.2,101.6548,3.278,3.28,3.273,100,0,0,0,387.2,130.2,130.2
"2022-11-14 01:26:00",3200890,1.598,57.32435,5.989687,0.1324236,1.92,0,0.8433332,31.60019,5.173644,0.08881941,0.98,0,-999,0,3.6,88.2,3.602,3.63,0.2,0,0,2.993,13.23,0.2,101.6556,3.276,3.279,3.273,100,0,0,0,387.2,130.2,130.2
"2022-11-14 01:27:00",3200891,1.586667,56.00085,3.161167,0.1335498,1.72,0,0.7493334,30.8674,5.187134,0.08354373,0.91,0,-999,0,3.6,88.9,3.634,3.648,0.2,0,0,2.98,13.24,0.2,101.6522,3.276,3.278,3.274,100,0,0,0,387.2,130.2,130.2
"2022-11-14 01:28:00",3200892,1.416667,55.72113,8.749183,0.1459071,1.71,0,0.648,26.52666,8.728796,0.07332121,0.81,0,-999,0,3.6,89.3,3.638,3.64,0.2,0,0,2.971,13.23,0.2,101.6571,3.276,3.278,3.273,100,0,0,0,387.2,130.2,130.2
"2022-11-14 01:29:00",3200893,1.598,61.12001,7.19535,0.2221171,1.92,0,0.5693333,36.69886,9.683362,0.1126331,0.71,0,-999,0,3.527,89.1,3.565,3.564,0.2,0,0,2.965,13.23,0.2,101.6496,3.276,3.278,3.275,100,0,0,0,387.2,130.2,130.2
"2022-11-14 01:30:00",3200894,1.601333,61.06836,3.871626,0.1337593,1.82,0,0.6906667,36.36042,8.564174,0.1984764,0.92,0,-999,0,3.5,89.1,3.532,3.541,0.2,0,0,2.95,13.24,0.2,101.6537,3.278,3.279,3.275,100,0,0,0,387.2,130.2,130.2
"2022-11-14 01:31:00",3200895,1.530667,60.79744,4.353786,0.1364046,1.73,0,0.8353332,23.99104,6.48665,0.08309568,0.99,0,-999,0,3.5,89.2,3.543,3.545,0.2,0,0,2.948,13.24,0.2,101.644,3.279,3.279,3.275,100,0,0,0,387.2,130.2,130.2
"2022-11-14 01:32:00",3200896,1.586666,64.86869,3.701497,0.1308774,1.85,0,0.6753333,40.86993,6.364451,0.09735617,0.94,0,-999,0,3.48,89.3,3.504,3.508,0.2,0,0,2.93,13.23,0.2,101.6423,3.278,3.279,3.275,100,0,0,0,387.2,130.2,130.2
"2022-11-14 01:33:00",3200897,1.435333,62.80488,4.747856,0.07666957,1.61,0,0.4626667,23.53714,10.43511,0.06777085,0.61,0,-999,0,3.4,89.7,3.451,3.443,0.2,0,0,2.922,13.24,0.2,101.6444,3.279,3.279,3.278,100,0,0,0,387.2,130.2,130.2
"2022-11-14 01:34:00",3200898,1.567333,59.52708,3.770032,0.1913275,1.9,0,0.5853334,15.40848,5.625298,0.04030991,0.7,0,-999,0,3.38,89.7,3.4,3.38,0.2,0,0,2.907,13.24,0.2,101.6457,3.279,3.28,3.278,100,0,0,0,387.2,130.2,130.2
"2022-11-14 01:35:00",3200899,1.767334,62.64256,10.89851,0.3534113,2.64,0,0.5866666,15.59947,7.356813,0.1492053,1.02,0,-999,0,3.34,89.6,3.416,3.393,0.2,0,0,2.903,13.24,0.2,101.6477,3.278,3.279,3.275,100,0,0,0,387.2,130.2,130.2
"2022-11-14 01:36:00",3200900,1.714,59.13522,4.363276,0.102489,1.88,0,1.002,17.6077,4.916175,0.1157699,1.19,0,-999,0,3.333,89.6,3.4,3.368,0.2,0,0,2.887,13.23,0.2,101.6408,3.275,3.278,3.274,100,0,0,0,387.2,130.2,130.2
"2022-11-14 01:37:00",3200901,1.492,59.46429,4.316917,0.148018,1.83,0,0.9973334,19.86398,4.644519,0.1157277,1.21,0,-999,0,3.287,89.3,3.337,3.312,0.2,0,0,2.869,13.24,0.2,101.6439,3.275,3.28,3.275,100,0,0,0,387.2,130.2,130.2
"2022-11-14 01:38:00",3200902,1.704666,55.13326,2.418404,0.1345544,1.94,0,1.14,28.9344,4.624453,0.07518864,1.28,0,-999,0,3.2,88.7,3.254,3.226,0.2,0,0,2.862,13.24,0.2,101.6382,3.275,3.278,3.275,100,0,0,0,387.2,130.2,130.2
"2022-11-14 01:39:00",3200903,1.766,57.86164,7.890431,0.1160919,2.01,0,1.122667,28.32767,4.864525,0.06201792,1.24,0,-999,0,3.187,88.9,3.201,3.205,0.2,0,0,2.847,13.22,0.2,101.6353,3.274,3.275,3.272,100,0,0,0,387.2,130.2,130.2
"2022-11-14 01:40:00",3200904,1.809333,47.53697,5.172807,0.196722,2.17,0,1.187333,21.06697,2.767683,0.06557098,1.28,0,-999,0,3.2,89.7,3.226,3.235,0.2,0,0,2.828,13.24,0.2,101.6308,3.275,3.278,3.275,100,0,0,0,387.2,130.2,130.2
"2022-11-14 01:41:00",3200905,1.678667,40.26816,5.614093,0.1807343,1.99,0,1.212,9.267482,5.858761,0.1426511,1.48,0,-999,0,3.227,90.5,3.362,3.327,0.2,0,0,2.822,13.23,0.2,101.6295,3.278,3.278,3.273,100,0,0,0,387.2,130.2,130.2
"2022-11-14 01:42:00",3200906,1.696667,42.26266,6.201286,0.1233784,1.93,0,1.336,10.06492,4.793306,0.08292971,1.48,0,-999,0,3.313,91.6,3.485,3.438,0.2,0,0,2.809,13.22,0.2,101.6259,3.274,3.277,3.273,100,0,0,0,387.2,130.2,130.2
"2022-11-14 01:43:00",3200907,1.551333,41.58133,7.867121,0.1836616,1.95,0,1.304667,10.66516,4.93421,0.08073551,1.5,0,-999,0,3.313,91.4,3.442,3.402,0.2,0,0,2.794,13.23,0.2,101.6286,3.275,3.275,3.271,100,0,0,0,387.2,130.2,130.2
"2022-11-14 01:44:00",3200908,1.686666,49.9989,7.252651,0.1685889,2.09,0,1.073333,9.329643,4.905018,0.09741093,1.23,0,-999,0,3.3,90.7,3.36,3.339,0.2,0,0,2.779,13.23,0.2,101.6291,3.274,3.275,3.273,100,0,0,0,387.2,130.2,130.2
"2022-11-14 01:45:00",3200909,1.514,44.93343,3.888879,0.1266386,1.76,0,1.126,11.53429,4.332319,0.1070701,1.29,0,-999,0,3.3,90.7,3.363,3.338,0.2,0,0,2.765,13.23,0.2,101.6306,3.275,3.275,3.273,100,0,0,0,387.2,130.2,130.2
"2022-11-14 01:46:00",3200910,1.536,47.54319,8.175994,0.2253826,2.11,0,1.029333,18.66447,4.809364,0.1622947,1.37,0,-999,0,3.22,90.6,3.322,3.287,0.2,0,0,2.749,13.24,0.2,101.6256,3.277,3.277,3.275,100,0,0,0,387.2,130.2,130.2
"2022-11-14 01:47:00",3200911,1.524667,42.93433,8.082514,0.1826423,1.81,0,0.8993332,29.96124,9.856351,0.1010258,1.06,0,-999,0,3.3,90.9,3.406,3.384,0.2,0,0,2.736,13.24,0.2,101.6236,3.275,3.278,3.275,100,0,0,0,387.2,130.2,130.2